TimeCDT,TemperatureF,Dew PointF,Humidity,Sea Level PressureIn,VisibilityMPH,Wind Direction,Wind SpeedMPH,Gust SpeedMPH,PrecipitationIn,Events,Conditions,WindDirDegrees,DateUTC
12:13 AM,30.2,21.2,69,30.14,10.0,NW,9.2,-,N/A,,Overcast,320,2013-10-24 05:13:00
12:33 AM,30.2,21.2,69,30.14,10.0,NW,6.9,-,N/A,,Overcast,310,2013-10-24 05:33:00
12:53 AM,30.2,21.2,69,30.15,10.0,NW,8.1,-,N/A,,Overcast,310,2013-10-24 05:53:00
1:13 AM,30.2,21.2,69,30.15,10.0,NW,8.1,-,N/A,,Overcast,320,2013-10-24 06:13:00
1:33 AM,30.2,21.2,69,30.15,10.0,NW,6.9,-,N/A,,Overcast,320,2013-10-24 06:33:00
1:53 AM,30.2,21.2,69,30.16,10.0,NW,5.8,-,N/A,,Overcast,310,2013-10-24 06:53:00
2:13 AM,30.2,21.2,69,30.16,10.0,WNW,4.6,-,N/A,,Scattered Clouds,300,2013-10-24 07:13:00
2:32 AM,30.2,21.2,69,30.16,10.0,WNW,3.5,-,N/A,,Clear,290,2013-10-24 07:32:00
2:53 AM,28.4,21.2,74,30.17,10.0,West,5.8,-,N/A,,Clear,280,2013-10-24 07:53:00
3:12 AM,28.4,23.0,80,30.17,10.0,Calm,Calm,-,N/A,,Clear,0,2013-10-24 08:12:00
3:33 AM,28.4,24.8,86,30.17,10.0,Calm,Calm,-,N/A,,Clear,0,2013-10-24 08:33:00
3:53 AM,28.4,26.6,93,30.17,10.0,Calm,Calm,-,N/A,,Scattered Clouds,0,2013-10-24 08:53:00
4:12 AM,30.2,26.6,86,30.17,10.0,Calm,Calm,-,N/A,,Mostly Cloudy,0,2013-10-24 09:12:00
4:33 AM,30.2,26.6,86,30.18,10.0,Calm,Calm,-,N/A,,Overcast,0,2013-10-24 09:33:00
4:53 AM,30.2,28.4,93,30.18,10.0,West,3.5,-,N/A,,Overcast,270,2013-10-24 09:53:00
5:12 AM,30.2,30.2,100,30.19,10.0,Calm,Calm,-,N/A,,Overcast,0,2013-10-24 10:12:00
5:33 AM,32.0,30.2,93,30.19,10.0,Calm,Calm,-,N/A,,Overcast,0,2013-10-24 10:33:00
5:53 AM,32.0,30.2,93,30.19,10.0,Calm,Calm,-,N/A,,Overcast,0,2013-10-24 10:53:00
6:12 AM,33.8,32.0,93,30.20,10.0,WNW,6.9,-,N/A,,Overcast,290,2013-10-24 11:12:00
6:33 AM,33.8,32.0,93,30.20,10.0,WNW,5.8,-,N/A,,Mostly Cloudy,290,2013-10-24 11:33:00
6:52 AM,32.0,30.2,93,30.21,10.0,WNW,4.6,-,N/A,,Scattered Clouds,300,2013-10-24 11:52:00
7:13 AM,32.0,30.2,93,30.22,10.0,WNW,8.1,-,N/A,,Scattered Clouds,300,2013-10-24 12:13:00
7:33 AM,32.0,30.2,93,30.22,10.0,WNW,8.1,-,N/A,,Scattered Clouds,300,2013-10-24 12:33:00
7:52 AM,32.0,30.2,93,30.22,10.0,WNW,4.6,-,N/A,,Clear,290,2013-10-24 12:52:00
8:13 AM,32.0,30.2,93,30.22,10.0,WNW,6.9,-,N/A,,Clear,290,2013-10-24 13:13:00
8:33 AM,33.8,32.0,93,30.23,10.0,WNW,8.1,-,N/A,,Clear,300,2013-10-24 13:33:00
8:53 AM,33.8,32.0,93,30.24,10.0,WNW,9.2,-,N/A,,Clear,300,2013-10-24 13:53:00
9:13 AM,35.6,33.8,93,30.24,10.0,WNW,8.1,-,N/A,,Scattered Clouds,300,2013-10-24 14:13:00
9:33 AM,37.4,33.8,87,30.24,10.0,NW,10.4,-,N/A,,Mostly Cloudy,310,2013-10-24 14:33:00
9:53 AM,37.4,33.8,87,30.25,10.0,WNW,11.5,-,N/A,,Mostly Cloudy,300,2013-10-24 14:53:00
10:13 AM,37.4,33.8,87,30.25,10.0,NW,8.1,-,N/A,,Scattered Clouds,310,2013-10-24 15:13:00
10:33 AM,39.2,33.8,81,30.26,10.0,WNW,11.5,18.4,N/A,,Scattered Clouds,300,2013-10-24 15:33:00
10:52 AM,39.2,33.8,81,30.26,10.0,NW,9.2,-,N/A,,Scattered Clouds,310,2013-10-24 15:52:00
11:13 AM,39.2,32.0,75,30.27,10.0,NW,9.2,-,N/A,,Mostly Cloudy,310,2013-10-24 16:13:00
11:33 AM,41.0,32.0,70,30.27,10.0,NW,11.5,17.3,N/A,,Mostly Cloudy,310,2013-10-24 16:33:00
11:52 AM,41.0,32.0,70,30.27,10.0,NNW,11.5,-,N/A,,Overcast,330,2013-10-24 16:52:00
12:13 PM,39.2,30.2,70,30.28,10.0,NNW,11.5,-,N/A,,Overcast,330,2013-10-24 17:13:00
12:32 PM,41.0,32.0,70,30.27,10.0,NNW,9.2,-,N/A,,Overcast,330,2013-10-24 17:32:00
12:53 PM,42.8,32.0,66,30.27,10.0,NNW,12.7,-,N/A,,Overcast,340,2013-10-24 17:53:00
1:12 PM,42.8,33.8,70,30.27,10.0,NNW,11.5,-,N/A,,Overcast,330,2013-10-24 18:12:00
1:33 PM,42.8,33.8,70,30.27,10.0,NNW,6.9,-,N/A,,Overcast,330,2013-10-24 18:33:00
1:53 PM,42.8,30.2,61,30.26,10.0,NNW,11.5,-,N/A,,Mostly Cloudy,330,2013-10-24 18:53:00
2:12 PM,42.8,28.4,57,30.26,10.0,NW,11.5,18.4,N/A,,Scattered Clouds,320,2013-10-24 19:12:00
2:33 PM,42.8,30.2,61,30.26,10.0,NW,10.4,-,N/A,,Mostly Cloudy,310,2013-10-24 19:33:00
2:52 PM,42.8,30.2,61,30.26,10.0,NNW,10.4,-,N/A,,Mostly Cloudy,330,2013-10-24 19:52:00
3:13 PM,42.8,30.2,61,30.26,10.0,WNW,8.1,-,N/A,,Overcast,290,2013-10-24 20:13:00
3:32 PM,42.8,30.2,61,30.26,10.0,NW,12.7,17.3,N/A,,Overcast,320,2013-10-24 20:32:00
3:53 PM,42.8,30.2,61,30.26,10.0,NW,10.4,16.1,N/A,,Overcast,320,2013-10-24 20:53:00
4:13 PM,42.8,30.2,61,30.27,10.0,NW,8.1,-,N/A,,Overcast,310,2013-10-24 21:13:00
4:33 PM,42.8,30.2,61,30.27,10.0,NW,9.2,-,N/A,,Overcast,310,2013-10-24 21:33:00
4:53 PM,42.8,30.2,61,30.27,10.0,NW,6.9,-,N/A,,Overcast,320,2013-10-24 21:53:00
5:13 PM,41.0,30.2,65,30.27,10.0,WNW,13.8,18.4,N/A,,Overcast,290,2013-10-24 22:13:00
5:33 PM,41.0,30.2,65,30.28,10.0,WNW,9.2,-,N/A,,Mostly Cloudy,300,2013-10-24 22:33:00
5:52 PM,39.2,30.2,70,30.28,10.0,WNW,9.2,17.3,N/A,,Mostly Cloudy,300,2013-10-24 22:52:00
6:13 PM,39.2,30.2,70,30.28,10.0,WNW,9.2,-,N/A,,Mostly Cloudy,290,2013-10-24 23:13:00
6:33 PM,39.2,32.0,75,30.29,10.0,WNW,4.6,-,N/A,,Mostly Cloudy,300,2013-10-24 23:33:00
6:52 PM,39.2,32.0,75,30.29,10.0,NW,6.9,-,N/A,,Overcast,310,2013-10-24 23:52:00
7:13 PM,39.2,32.0,75,30.29,10.0,WNW,8.1,-,N/A,,Overcast,300,2013-10-25 00:13:00
7:32 PM,39.2,32.0,75,30.30,10.0,Calm,Calm,-,N/A,,Overcast,0,2013-10-25 00:32:00
7:53 PM,37.4,32.0,81,30.30,10.0,Calm,Calm,-,N/A,,Overcast,0,2013-10-25 00:53:00
8:12 PM,37.4,32.0,81,30.30,10.0,Calm,Calm,-,N/A,,Overcast,0,2013-10-25 01:12:00
8:33 PM,37.4,32.0,81,30.30,10.0,WNW,5.8,-,N/A,,Overcast,290,2013-10-25 01:33:00
8:52 PM,37.4,30.2,75,30.30,10.0,West,4.6,-,N/A,,Overcast,280,2013-10-25 01:52:00
9:13 PM,37.4,32.0,81,30.30,10.0,West,4.6,-,N/A,,Overcast,280,2013-10-25 02:13:00
9:33 PM,37.4,32.0,81,30.31,10.0,West,5.8,-,N/A,,Overcast,280,2013-10-25 02:33:00
9:52 PM,37.4,32.0,81,30.31,10.0,West,3.5,-,N/A,,Overcast,270,2013-10-25 02:52:00
10:13 PM,37.4,33.8,87,30.31,10.0,West,4.6,-,N/A,,Overcast,280,2013-10-25 03:13:00
10:33 PM,37.4,33.8,87,30.32,10.0,Calm,Calm,-,N/A,,Overcast,0,2013-10-25 03:33:00
10:52 PM,37.4,33.8,87,30.32,10.0,West,3.5,-,N/A,,Overcast,270,2013-10-25 03:52:00
11:13 PM,37.4,33.8,87,30.32,10.0,Calm,Calm,-,N/A,,Overcast,0,2013-10-25 04:13:00
11:33 PM,37.4,33.8,87,30.32,10.0,Calm,Calm,-,N/A,,Overcast,0,2013-10-25 04:33:00
11:52 PM,37.4,32.0,81,30.32,10.0,Calm,Calm,-,N/A,,Overcast,0,2013-10-25 04:52:00